www.pogodaiklimat.ru

Архив погоды в Южно-Курильске (Сахалинская область, Россия)

Время
(UTC), дата
12 25.11
15 25.11
18 25.11
21 25.11
00 26.11
03 26.11
06 26.11
09 26.11
12 26.11
15 26.11
18 26.11
21 26.11
00 27.11
03 27.11
06 27.11
09 27.11
12 27.11
15 27.11
18 27.11
21 27.11
00 28.11
03 28.11
06 28.11
09 28.11
12 28.11
15 28.11
18 28.11
21 28.11
00 29.11
03 29.11
06 29.11
09 29.11
12 29.11
15 29.11
18 29.11
21 29.11
00 30.11
03 30.11
06 30.11
09 30.11
12 30.11
15 30.11
18 30.11
21 30.11
00 1.12
03 1.12
06 1.12
09 1.12
12 1.12
15 1.12
18 1.12
21 1.12
00 2.12
03 2.12
06 2.12
09 2.12
Ветер
(напр.,м/с)
Видим. Явления Облачность Т
(С)
Тd
(С)
f
(%)
Тe
(С)
Тes
(С)
Комфортность P
(гПа)
Po
(гПа)
Тmin
(С)
Tmax
(С)
R
(мм)
R24
(мм)
S
(см)
С 1-1
{5}
50 км ясно +2.5 -0.9 78 +1 +1 по сезону 1003.8 998.1
З 1-1
{4}
50 км 3/3 600 м
[Cu hum]
+0.6 -0.4 93 -1 -1 по сезону 1003.6 997.9
штиль 0
{9}
20 км в посл. час снег {ливн. снег} 6/6 600 м
[Cb cap]
-0.5 -0.5 100 -2 -2 по сезону 1003.6 997.8
З 3-3
{5}
50 км в посл. час крупа {ливн. снег} 4/4 600 м
[Cb cap]
+0.9 -1.0 87 -4 -4 по сезону 1003.9 998.2 -0.8 2 1
З 5-6
{10}
50 км {ливн. снег} 8/4 600 м
[Cb cap Ac As Ci fib]
+2.2 -3.3 67 -3 -3 по сезону 1004.6 998.8
З 5-8
{15}
50 км 3/3 600 м
[Cb cap]
+3.2 -4.9 55 -1 -0 по сезону 1003.2 997.5
З 5-6
{15}
50 км 6/4 600 м
[Cb cap Ci fib]
+2.4 -2.3 71 -3 -3 по сезону 1002.8 997.1
З 6-8
{14}
4000 м слаб. ливневой снег 6/6 600 м
[Cb cap]
-0.0 -0.0 100 -7 -7 прохладно 1004.0 998.3 +3.8 1
З 7-7
{13}
4000 м слаб. ливневой снег 8/8 600 м
[Cb cap]
+1.3 +1.1 99 -6 -6 прохладно 1004.3 998.6
З 5-6
{12}
20 км {ливн. снег} 6/6 600 м
[Cb cap]
+3.1 -1.2 73 -2 -2 по сезону 1003.7 998.0
З 7-9
{11}
20 км {ливн. снег} 8/8 600 м
[Cb cap]
+3.0 -0.3 79 -3 -3 по сезону 1003.4 997.8
ЮЗ 3-5
{10}
20 км 8/8 600 м
[Cb cap]
+2.1 +1.2 94 -2 -2 по сезону 1004.2 998.5 -0.2 2 1
З 3-5
{9}
20 км в посл. час ливневой снег 9/9 600 м
[Cb cap]
+3.3 +2.0 91 -1 -1 по сезону 1004.8 999.1
С 7-13
{14}
4000 м осадки на расстоянии {ливн. снег} 10/10 600 м
[Cb cap]
+2.5 -0.0 84 -4 -4 по сезону 1007.7 1002.0
С 8-15
{17}
4000 м осадки на расстоянии {ливн. снег} 10/8 600 м
[Cb cap Ci fib]
+3.1 -1.6 71 -3 -3 по сезону 1011.2 1005.5
СЗ 5-10
{15}
20 км в посл. час крупа 10/10 600 м
[Cb cap]
+3.3 +0.6 82 -2 -2 по сезону 1014.0 1008.3 +4.0 0.9
С 7-15
{16}
20 км в посл. час крупа {ливн. снег} 10/10 600 м
[Cb cap]
+2.6 +0.2 84 -4 -4 по сезону 1016.9 1011.1
СЗ 7-13
{15}
20 км в посл. час ливневой дождь 9/9 600 м
[Cb cap]
+1.0 -0.7 88 -6 -6 прохладно 1017.9 1012.0
СЗ 7-13
{15}
20 км в посл. час ливневой снег 5/5 600 м
[Cb cap]
+0.4 -0.2 96 -7 -7 прохладно 1019.3 1013.5
СЗ 6-12
{15}
20 км {ливн. снег} 6/6 600 м
[Cb cap]
+1.0 -1.3 85 -5 -5 по сезону 1020.9 1015.1 -0.3 3 2
С 6-9
{14}
20 км слаб. крупа {ливн. снег} 8/8 600 м
[Cb cap]
+1.7 -0.9 83 -4 -4 по сезону 1022.6 1016.7
СЗ 7-9
{14}
20 км слаб. ливневой снег 8/8 600 м
[Cb cap]
+1.5 -0.2 88 -5 -5 по сезону 1022.6 1016.7
СЗ 7-9
{14}
20 км {ливн. снег} 8/8 600 м
[Cb cap]
+2.2 -2.7 70 -4 -4 по сезону 1023.9 1018.1
СЗ 4-6
{13}
20 км 3/3 600 м
[Cu hum]
+3.2 -0.5 77 -1 -1 по сезону 1024.9 1019.1 +3.3 0.3
СЗ 2-4
{11}
20 км ясно +2.8 -0.9 77 -0 -0 по сезону 1025.2 1019.4
ЮЗ 2-2
{5}
20 км ясно +3.5 +0.3 80 +1 +1 по сезону 1024.8 1019.0
ЮЗ 4-5
{5}
20 км ясно +3.0 -1.2 74 -2 -2 по сезону 1023.9 1018.1
ЮЗ 4-6
{10}
20 км ясно +4.0 +0.1 76 -0 -0 по сезону 1022.8 1017.0 +1.3 <0.5
Ю 3-4
{9}
50 км 8/0
[Cs]
+5.7 +2.2 78 +3 +4 тепло 1021.7 1016.0
Ю 7-8
{8}
50 км 10/0
[Cs]
+5.6 +1.6 75 +1 +1 по сезону 1019.0 1013.2
ЮЗ 6-7
{10}
50 км 10/0
[Ac As Ci fib]
+5.3 +1.6 77 0 +1 по сезону 1017.8 1012.0
ЮЗ 2-3
{7}
50 км ясно +5.4 +2.3 80 +3 +3 тепло 1016.6 1010.9 +5.8
СЗ 2-2
{8}
50 км ясно +5.8 +1.9 76 +4 +4 тепло 1017.0 1011.3
СЗ 3-3
{5}
50 км ясно +6.6 +4.5 86 +3 +3 тепло 1017.8 1012.1
СЗ 3-4
{7}
4000 м дымка 6/6 600 м
[Cb cap]
+6.5 +5.1 91 +3 +3 тепло 1018.2 1012.5
СЗ 1-2
{7}
4000 м дымка 6/6 600 м
[Cb cap Ci fib]
+5.9 +3.6 85 +5 +5 тепло 1019.9 1014.2 +4.9
штиль 0
{3}
20 км 10/9 1000 м
[Sc Cs]
+7.0 +3.9 81 +6 +6 тепло 1021.2 1015.5
штиль 0 20 км 10/6 1000 м
[Sc Ac As]
+7.5 +3.3 75 +7 +7 тепло 1020.4 1014.8
В 1-2
{3}
20 км 10/8 600 м
[Sc Ac As]
+7.4 +4.9 84 +7 +7 тепло 1019.5 1013.8
В 3-6
{6}
20 км 10/8 300 м
[St Cs]
+6.9 +5.3 90 +4 +4 тепло 1019.0 1013.3 +7.7
ЮВ 3-5
{6}
4000 м дымка 10/9 300 м
[St Cs]
+6.7 +6.7 100 +3 +3 тепло 1018.7 1013.0
ЮВ 7-12
{12}
2000 м дымка {туман} 10/10 300 м
[St]
+8.3 +8.3 100 +4 +4 тепло 1014.1 1008.5
Ю 14-21
{21}
2000 м слаб. дождь 10/10 300 м
[Frnb Ns]
+9.9 +9.9 100 +4 +4 тепло 1008.2 1002.6
Ю 15-24
{24}
4000 м слаб. дождь 10/10 300 м
[Frnb Ns]
+10.2 +10.1 99 +5 +5 тепло 1003.6 998.1 +6.6 0.6
ЮВ 13-22
{24}
2000 м дымка {дождь} 10/10 300 м
[St]
+10.8 +9.8 94 +6 +6 тепло 1001.2 995.7
Ю 17-24
{28}
2000 м дымка 10/10 300 м
[St]
+11.0 +10.1 94 +6 +6 тепло 993.1 987.6
ЮВ 20-26
{30}
1000 м дождь 10/10 200 м
[Frnb Ns]
+10.6 +10.6 100 +5 +5 тепло 985.5 980.0
ЮЗ 9-13
{29}
20 км слаб. ливневой дождь 10/10 600 м
[Cb cap]
+9.1 +7.5 90 +4 +4 тепло 984.9 979.5 +11.1 12
ЮЗ 10-14
{19}
20 км {ливн. дождь, дождь} ясно +6.9 +0.2 62 +2 +2 тепло 988.5 983.0
Ю 14-20
{27}
20 км ясно +6.5 +0.2 64 0 0 по сезону 988.0 982.5
ЮЗ 11-15
{29}
20 км 6/6 600 м
[Cu hum]
+4.6 -1.8 63 -2 -2 по сезону 988.4 982.9
ЮЗ 10-13
{25}
20 км 4/4 600 м
[Cu hum]
+2.5 -4.1 62 -4 -4 по сезону 989.3 983.7 +2.5 0.0
З 10-13
{22}
50 км 6/3 600 м
[Cb cap Ac As Ci fib]
+2.8 -7.0 48 -4 -4 по сезону 993.0 987.3 +2.1
З 6-10
{15}
50 км 9/5 600 м
[Cb cap Ci fib]
+2.8 -6.4 51 -2 -2 по сезону 995.7 990.0
З 4-6
{15}
50 км 8/4 600 м
[Cb cap Ci fib]
+2.0 -6.0 55 -2 -2 по сезону 1001.1 995.4
З 5-9
{18}
50 км 6/6 600 м
[Cb cap]
+1.4 -8.7 47 -4 -4 по сезону 1007.6 1001.8 +3.4
Местоположение метеостанции Южно-Курильск (Сахалинская область, Россия): широта 44.02 долгота 145.80 высота над уровнем моря 49 м.
В архиве по умолчанию представлена погода в Южно-Курильске за последнюю неделю. Архивные данные за месяц целиком и за предыдущие месяцы, начиная с января 2011 года, Вы можете получить, выбрав интересующий диапазон дат из раскрывающегося списка и нажав кнопку "Найти!".
*Определитесь, кто Вы:
Внимание! Время в таблицах - всемирное. Для получения местного времени необходимо прибавить поправку, которая равна 11 ч.
Смотрите также архив погоды в соседних городах и на ближайших метеорологических станциях:
Партнеры нашего сайта:
Жидкая резина для авто
Картинки, надписи. Наклейки на авто. Получение и оплата на ближайшей почте
plastidip-russia.ru

     
Пояснения к столбцам:
  • Ветер - указаны скорость ветра в м/с - средняя за 10 мин, порывы в срок и между сроками (в фигурных скобках) и направление, откуда дует ветер: С - северный,
  • СВ - северо-восточный, В - восточный, ЮВ - юго-восточный, Ю - южный, ЮЗ - юго-западный, З - западный, СЗ - северо-западный.
  • Видимость - горизонтальная дальность видимости в метрах или километрах. При видимости от 1 до 10 км при отсутствии осадков обычно наблюдается дымка, при ухудшении видимости до 1 км и менее - туман. В сухую погоду видимость может ухудшаться дымом, пылью или мглою.
  • Явления - указаны атмосферные явления, наблюдавшиеся в срок или в последний час перед сроком; фигурными скобками обозначены явления, наблюдавшиеся между сроками (за 1-3 часа до срока); квадратными скобками обозначены град или гололедные отложения с указанием их диаметра в мм.
  • Облачность - указаны через наклонную черту общая и нижняя облачность в баллах и высота нижней границы облаков в метрах; квадратными скобками обозначены формы облаков: Ci - перистые, Cs - перисто-слоистые, Cc - перисто-кучевые, Ac - высококучевые, As - высокослоистые, Sc - слоисто-кучевые, Ns - слоисто-дождевые, Cu - кучевые, Cb - кучево-дождевые. Подробнее классификацию облаков см. в Атласе облаков (PDF).
  • T - Температура воздуха - температура, измеренная на высоте 2 м над землей.
  • Td - Температура точки росы - температура, при понижении до которой содержащийся в воздухе водяной пар достигнет насыщения.
  • f - Относительная влажность воздуха - влажноcть воздуха, измеренная на высоте 2 м над землей.
  • Te - Эффективная температура - температура, которую ощущает одетый по сезону человек в тени. Характеристика душности погоды. При расчете учитывается влияние влажности воздуха и скорости ветра на теплоощущения человека.
  • Tes - Эффективная температура на солнце - температура, которую ощущает человек, с поправкой на солнечный нагрев. Характеристика знойности погоды. Зависит от высоты солнца над горизонтом, облачности и скорости ветра. Ночью, в пасмурную погоду, а также при ветре 12 м/с и более поправка равна нулю.
  • P - Атмосферное давление - приведенное к уровню моря атмосферное давление.
  • Po - Атмосферное давление - измеренное на уровне метеостанции атмосферное давление.
  • Tmin - Минимальная температура - минимум температуры воздуха на высоте 2 м над землей.
  • Tmax - Максимальная температура - максимум температуры воздуха на высоте 2 м над землей.
  • R - Количество осадков - Количество выпавших осадков за период времени, мм. При наведении курсора мыши на число - период времени, за который выпало указанное количество осадков.
  • R24 - Количество осадков - Количество выпавших осадков за 24 часа, мм.
  • S - Снежный покров - Высота снежного покрова, см. При наведении курсора мыши на число - состояние снежного покрова и степень покрытия местности в баллах.